Cheraw, SC

6:24 AM EDT on May 20, 2018 (GMT -0400)
Cheraw

Weather History for KCQW - October, 2012

Change the Weather History Date:

Thursday, October 11, 2012

  Actual Average (KFLO) Record (KFLO)
Temperature  
Mean Temperature 56 °F -  
Max Temperature 69 °F 75 °F 89 °F (1954)
Min Temperature 44 °F 54 °F 37 °F (2000)
Degree Days  
Heating Degree Days 8    
Growing Degree Days 6 (Base 50)    
Moisture  
Dew Point 45 °F    
Average Humidity 74    
Maximum Humidity 100    
Minimum Humidity 33    
Precipitation  
Precipitation 0.00 in - - ()
Sea Level Pressure  
Sea Level Pressure 30.23 in    
Wind  
Wind Speed 5 mph (NE)    
Max Wind Speed 21 mph    
Max Gust Speed 30 mph    
Visibility 9 miles    
Events      
Averages and records for this station are not official NWS values.
T = Trace of Precipitation, MM = Missing Value Source: NWS Daily Summary

Daily Weather History Graph

Daily Weather History Graph

Search for Another Location

Airport or City:

Astronomy

Oct. 11, 2012 Rise Set
Actual Time 7:22 AM EDT 6:49 PM EDT
Civil Twilight 6:57 AM EDT 7:14 PM EDT
Nautical Twilight 6:28 AM EDT 7:44 PM EDT
Astronomical Twilight 5:58 AM EDT 8:13 PM EDT
Moon 3:09 AM EDT (10/11) 4:17 PM EDT (10/11)
Length of Visible Light 12h 17m
Length of Day
11h 27m
Waning Crescent, 18% of the Moon is Illuminated
Oct 11
Waning Crescent
Oct 15
New
Oct 21
First Quarter
Oct 29
Full
Nov 6
Last Quarter

Hourly Weather History & Observations

Time (EDT) Temp. Windchill Dew Point Humidity Pressure Visibility Wind Dir Wind Speed Gust Speed Precip Events Conditions
12:15 AM 51.8 °F - 51.8 °F 100% 30.13 in 9.0 mi Calm Calm - N/A   Clear
12:35 AM 51.8 °F - 51.8 °F 100% 30.13 in 8.0 mi NW 3.5 mph - N/A   Clear
12:55 AM 51.8 °F - 51.8 °F 100% 30.14 in 10.0 mi West 5.8 mph - N/A   Clear
1:15 AM 51.8 °F - 51.8 °F 100% 30.14 in 8.0 mi NW 3.5 mph - N/A   Clear
1:35 AM 50.0 °F - 50.0 °F 100% 30.14 in 1.5 mi Calm Calm - N/A   Clear
1:55 AM 50.0 °F - 50.0 °F 100% 30.15 in 5.0 mi Calm Calm - N/A   Clear
2:15 AM 48.2 °F - 48.2 °F 100% 30.15 in 6.0 mi NNW 3.5 mph - N/A   Clear
2:35 AM 48.2 °F - 48.2 °F 100% 30.16 in 10.0 mi Calm Calm - N/A   Clear
2:55 AM 48.2 °F - 48.2 °F 100% 30.16 in 9.0 mi South 4.6 mph - N/A   Clear
3:35 AM 46.4 °F - 46.4 °F 100% 30.16 in 6.0 mi Calm Calm - N/A   Clear
3:55 AM 48.2 °F - 48.2 °F 100% 30.17 in 5.0 mi West 4.6 mph - N/A   Clear
4:15 AM 46.4 °F 45.2 °F 46.4 °F 100% 30.18 in 4.0 mi West 3.5 mph - N/A   Clear
4:35 AM 46.4 °F 42.4 °F 46.4 °F 100% 30.18 in 8.0 mi NNW 8.1 mph - N/A   Clear
4:55 AM 46.4 °F 41.9 °F 46.4 °F 100% 30.19 in 10.0 mi NNW 9.2 mph - N/A   Clear
5:15 AM 48.2 °F - 48.2 °F 100% 30.19 in 10.0 mi North 10.4 mph - N/A   Clear
5:35 AM 50.0 °F - 46.4 °F 87% 30.20 in 10.0 mi North 10.4 mph - N/A   Clear
5:55 AM 48.2 °F - 46.4 °F 93% 30.20 in 10.0 mi NNW 9.2 mph 16.1 mph N/A   Clear
6:35 AM 48.2 °F - 46.4 °F 93% 30.22 in 10.0 mi North 8.1 mph 16.1 mph N/A   Clear
6:55 AM 48.2 °F - 44.6 °F 87% 30.23 in 10.0 mi ENE 3.5 mph - N/A   Clear
7:15 AM 46.4 °F 45.2 °F 44.6 °F 93% 30.23 in 10.0 mi NNE 3.5 mph - N/A   Clear
7:35 AM 44.6 °F - 44.6 °F 100% 30.25 in 10.0 mi Calm Calm - N/A   Clear
7:55 AM 44.6 °F - 44.6 °F 100% 30.25 in 10.0 mi Calm Calm - N/A   Clear
8:35 AM 48.2 °F - 48.2 °F 100% 30.27 in 10.0 mi North 5.8 mph - N/A   Clear
8:55 AM 51.8 °F - 48.2 °F 88% 30.28 in 10.0 mi NE 8.1 mph - N/A   Clear
9:15 AM 51.8 °F - 46.4 °F 82% 30.29 in 10.0 mi NE 15.0 mph 18.4 mph N/A   Clear
9:35 AM 53.6 °F - 46.4 °F 77% 30.29 in 10.0 mi NE 12.7 mph 20.7 mph N/A   Clear
9:55 AM 55.4 °F - 46.4 °F 72% 30.30 in 10.0 mi NNE 16.1 mph 23.0 mph N/A   Clear
10:15 AM 57.2 °F - 44.6 °F 63% 30.31 in 10.0 mi NNE 19.6 mph 25.3 mph N/A   Clear
10:35 AM 57.2 °F - 44.6 °F 63% 30.31 in 10.0 mi NE 20.7 mph 28.8 mph N/A   Clear
10:55 AM 60.8 °F - 42.8 °F 52% 30.31 in 10.0 mi NNE 19.6 mph 26.5 mph N/A   Clear
11:15 AM 60.8 °F - 41.0 °F 48% 30.31 in 10.0 mi NE 15.0 mph 29.9 mph N/A   Clear
11:35 AM 62.6 °F - 42.8 °F 48% 30.31 in 10.0 mi NNE 20.7 mph 25.3 mph N/A   Clear
11:55 AM 62.6 °F - 41.0 °F 45% 30.31 in 10.0 mi NNE 15.0 mph 24.2 mph N/A   Clear
12:15 PM 64.4 °F - 41.0 °F 42% 30.30 in 10.0 mi ENE 10.4 mph 26.5 mph N/A   Clear
12:35 PM 64.4 °F - 39.2 °F 40% 30.29 in 10.0 mi ESE 11.5 mph 19.6 mph N/A   Clear
12:55 PM 66.2 °F - 41.0 °F 40% 30.29 in 10.0 mi East 8.1 mph 16.1 mph N/A   Clear
1:15 PM 66.2 °F - 39.2 °F 37% 30.28 in 10.0 mi East 9.2 mph 19.6 mph N/A   Clear
1:35 PM 66.2 °F - 39.2 °F 37% 30.28 in 10.0 mi ESE 12.7 mph 17.3 mph N/A   Clear
1:55 PM 66.2 °F - 41.0 °F 40% 30.27 in 10.0 mi ESE 11.5 mph 17.3 mph N/A   Clear
2:15 PM 66.2 °F - 39.2 °F 37% 30.26 in 10.0 mi South 9.2 mph - N/A   Clear
2:35 PM 66.2 °F - 39.2 °F 37% 30.26 in 10.0 mi North 3.5 mph 17.3 mph N/A   Clear
2:55 PM 68.0 °F - 41.0 °F 37% 30.25 in 10.0 mi SSE 9.2 mph 17.3 mph N/A   Clear
3:15 PM 68.0 °F - 39.2 °F 35% 30.25 in 10.0 mi SE 5.8 mph - N/A   Clear
3:35 PM 68.0 °F - 41.0 °F 37% 30.25 in 10.0 mi NNW 9.2 mph - N/A   Clear
3:55 PM 69.8 °F - 41.0 °F 35% 30.24 in 10.0 mi ESE 6.9 mph - N/A   Clear
4:15 PM 69.8 °F - 41.0 °F 35% 30.24 in 10.0 mi SW 8.1 mph - N/A   Clear
4:35 PM 69.8 °F - 39.2 °F 33% 30.23 in 10.0 mi SE 8.1 mph - N/A   Clear
4:55 PM 68.0 °F - 39.2 °F 35% 30.23 in 10.0 mi South 6.9 mph - N/A   Clear
5:15 PM 68.0 °F - 39.2 °F 35% 30.23 in 10.0 mi SSW 9.2 mph - N/A   Clear
5:35 PM 66.2 °F - 41.0 °F 40% 30.23 in 10.0 mi SSW 4.6 mph - N/A   Clear
6:15 PM 62.6 °F - 48.2 °F 59% 30.23 in 10.0 mi Calm Calm - N/A   Clear
6:35 PM 60.8 °F - 46.4 °F 59% 30.23 in 10.0 mi Calm Calm - N/A   Clear
6:55 PM 57.2 °F - 50.0 °F 77% 30.23 in 10.0 mi Calm Calm - N/A   Clear
7:35 PM 53.6 °F - 50.0 °F 88% 30.24 in 10.0 mi Calm Calm - N/A   Clear
7:55 PM 53.6 °F - 50.0 °F 88% 30.24 in 10.0 mi Calm Calm - N/A   Clear
8:15 PM 53.6 °F - 48.2 °F 82% 30.24 in 10.0 mi Calm Calm - N/A   Clear
8:35 PM 53.6 °F - 48.2 °F 82% 30.25 in 10.0 mi Calm Calm - N/A   Clear
9:15 PM 51.8 °F - 48.2 °F 88% 30.25 in 10.0 mi Calm Calm - N/A   Clear
9:35 PM 50.0 °F - 48.2 °F 94% 30.25 in 10.0 mi Calm Calm - N/A   Clear
9:55 PM 50.0 °F - 48.2 °F 94% 30.25 in 10.0 mi Calm Calm - N/A   Clear
10:15 PM 48.2 °F - 48.2 °F 100% 30.25 in 10.0 mi Calm Calm - N/A   Clear
10:55 PM 48.2 °F - 48.2 °F 100% 30.25 in 10.0 mi Calm Calm - N/A   Clear
11:55 PM 48.2 °F - 48.2 °F 100% 30.24 in 10.0 mi Calm Calm - N/A   Clear